BEIDOU 8 (C08)

Last updated on Aug. 15, 2020, 5:35 a.m. UTC

1 37384U 11013A   20227.43599909 -.00000162  00000-0  10000-3 0  9996
2 37384  59.3504  61.0066 0049661 201.1223 335.7733  1.00290211 34294
UTC
Height (km)
Latitude
Longitude
Inclination
Orbital Period
UTC large
Height (km)
Speed (km/s)
/
Latitude / Longitude
Inclination (degrees)
Orbital Period (minutes)
Azimuth
Elevation
Range (km)
Doppler Factor
iOS Compass Heading
iOS Angle

Next 30 passes for location: Hong Kong

Rise time Rise Azimuth (degrees) Set time Set Azimuth (degrees) Duration Max altitude (degrees)

No matching passes for this satellites